Weather History for Greenville, ME

Change the Weather History Date:

Monday, December 16, 2013

  Actual Average (KMLT) Record (KMLT)
Temperature  
Mean Temperature 2 °F 22 °F  
Max Temperature 10 °F 30 °F 45 °F (2011)
Min Temperature -6 °F 14 °F -21 °F (1970)
Degree Days  
Heating Degree Days 63 43  
Month to date heating degree days 636  
Since 1 July heating degree days 2479  
Cooling Degree Days 0 0  
Month to date cooling degree days 0  
Year to date cooling degree days 268  
Moisture  
Dew Point -4 °F    
Average Humidity 71    
Maximum Humidity 87    
Minimum Humidity 58    
Precipitation  
Precipitation 0.00 in 0.11 in 1.77 in (1927)
Month to date precipitation 2.21  
Year to date precipitation 41.36  
Sea Level Pressure  
Sea Level Pressure 29.82 in    
Wind  
Wind Speed 6 mph (NW)    
Max Wind Speed 16 mph    
Max Gust Speed 24 mph    
T = Trace of Precipitation, MM = Missing Value Source: NWS Daily Summary

Daily Weather History Graph

Daily Weather History Graph

Search for Another Location

Airport:

Trip Planner

Search our weather history database for the weather conditions in past years. The results will help you decide how hot, cold, wet, or windy it might be!

Date:

Astronomy

Dec. 16, 2013 Rise Set
Actual Time 7:12 AM EST 3:55 PM EST
Civil Twilight 6:38 AM EST 4:30 PM EST
Nautical Twilight 6:00 AM EST 5:07 PM EST
Astronomical Twilight 5:24 AM EST 5:43 PM EST
Moon 3:46 PM EST (12/16) 6:15 AM EST (12/16)
Length of Visible Light 9h 51m
Length of Day
8h 43m
Full, 100% of the Moon is Illuminated
Dec 16
Full
Dec 17
Full
Dec 25
Last Quarter
Jan 1
New
Jan 7
First Quarter

Hourly Weather History & Observations

Time (EST) Temp. Windchill Dew Point Humidity Pressure Visibility Wind Dir Wind Speed Gust Speed Precip Events Conditions
12:56 AM 5.0 °F -2.1 °F 1.9 °F 87% 29.58 in - NNE 3.5 mph - N/A   Unknown
1:56 AM 6.1 °F -4.3 °F 1.9 °F 83% 29.61 in - NW 5.8 mph - N/A   Unknown
2:56 AM 5.0 °F -4.1 °F -0.0 °F 80% 29.62 in - NNW 4.6 mph - N/A   Unknown
3:56 AM 6.1 °F -4.3 °F 1.0 °F 80% 29.64 in - Variable 5.8 mph - N/A   Unknown
4:56 AM 6.1 °F - 1.0 °F 80% 29.65 in - Calm Calm - N/A   Unknown
5:56 AM 7.0 °F - 1.9 °F 80% 29.67 in - North - - N/A   Unknown
6:56 AM 8.1 °F -0.5 °F 1.0 °F 73% 29.69 in - Variable 4.6 mph - N/A   Unknown
7:56 AM 7.0 °F -5.7 °F 1.0 °F 77% 29.72 in - NW 8.1 mph - N/A   Unknown
8:56 AM 8.1 °F -3.2 °F 1.0 °F 73% 29.74 in - Variable 6.9 mph - N/A   Unknown
9:56 AM 9.0 °F -3.2 °F -0.9 °F 64% 29.76 in - WNW 8.1 mph 17.3 mph N/A   Unknown
10:56 AM 10.0 °F 3.6 °F -0.0 °F 64% 29.75 in - Variable 3.5 mph - N/A   Unknown
11:56 AM 10.0 °F -0.9 °F -2.0 °F 58% 29.77 in - WNW 6.9 mph - N/A   Unknown
12:56 PM 10.0 °F -0.9 °F -2.0 °F 58% 29.77 in - Variable 6.9 mph - N/A   Unknown
1:56 PM 7.0 °F -4.5 °F -5.1 °F 58% 29.79 in - Variable 6.9 mph - N/A   Unknown
2:56 PM 3.9 °F -10.4 °F -5.1 °F 66% 29.86 in - WNW 9.2 mph 20.7 mph N/A   Unknown
3:56 PM 1.9 °F -11.8 °F -8.0 °F 63% 29.89 in - NW 8.1 mph 20.7 mph N/A   Unknown
4:56 PM -0.9 °F -17.4 °F -9.9 °F 66% 29.94 in - WNW 10.4 mph 20.7 mph N/A   Unknown
5:56 PM -2.9 °F -16.5 °F -11.0 °F 68% 29.96 in - Variable 6.9 mph - N/A   Unknown
6:56 PM -4.0 °F -20.2 °F -11.9 °F 69% 29.99 in - NW 9.2 mph 19.6 mph N/A   Unknown
7:56 PM -5.1 °F -25.1 °F -11.9 °F 72% 30.03 in - NW 13.8 mph 24.2 mph N/A   Unknown
8:56 PM -6.0 °F -23.6 °F -11.9 °F 75% 30.04 in - NW 10.4 mph 19.6 mph N/A   Unknown
9:56 PM -6.0 °F -22.6 °F -13.0 °F 72% 30.07 in - North 9.2 mph - N/A   Unknown
10:56 PM -6.0 °F -27.0 °F -11.9 °F 75% 30.09 in - NW 15.0 mph 21.9 mph N/A   Unknown
11:56 PM -6.0 °F -27.7 °F -13.0 °F 72% 30.12 in - NW 16.1 mph 23.0 mph N/A   Unknown